706  
ASUS44 KMOB 261212  
RWRMOB  
REGIONAL WEATHER ROUNDUP  
NATIONAL WEATHER SERVICE MOBILE AL  
700 AM CDT WED SEP 26 2018  
 
NOTE: "FAIR" INDICATES FEW OR NO CLOUDS BELOW 12,000 FEET WITH NO  
SIGNIFICANT WEATHER AND/OR S TO VISIBILITY
.  
 
* THESE STATIONS ARE PART OF THE UNIVERSITY OF SOUTH ALABAMA  
MESONET AND ARE NOT UNDER NWS OR FAA QUALITY CONTROL.
 
 
ALZ061>064-261300-  
COASTAL ALABAMA  
 
CITY SKY/WX TMP DP RH WIND PRES REMARKS
 
MOBILE REG APT FAIR 75 74 96 CALM 30.06S FOG  
6HR MIN TEMP: 74; 6HR MAX TEMP: 79;  
 
BROOKLEY FIELD FAIR 77 77 100 CALM 30.06S  
6HR MIN TEMP: 77; 6HR MAX TEMP: 84;  
 
USA CAMPUS* N/A 73 73 100 CALM 30.06S  
DOG RIVER* N/A 75 75 100 W2 N/A  
 
 
CITY SKY/WX TMP DP RH WIND PRES REMARKS
 
GULF SHORES FAIR 74 74 100 CALM 30.06R  
 

 
 
ALZ051>060-261300-  
INTERIOR SOUTHWEST AND SOUTH CENTRAL ALABAMA  
 
CITY SKY/WX TMP DP RH WIND PRES REMARKS
 
GREENVILLE NOT AVBL  
EVERGREEN FAIR 73 71 93 CALM 30.08S  
6HR MIN TEMP: 73; 6HR MAX TEMP: 76;  
 
ATMORE* N/A N/A N/A N/A E2 30.82F  
ANDALUSIA/OPP FAIR 74 70 87 E5 30.08R  
6HR MIN TEMP: 74; 6HR MAX TEMP: 76;  
 
ANDALUSIA* N/A N/A N/A N/A E2 30.08S  
FLORALA APT CLOUDY 72 69 90 CALM 30.10R  
6HR MIN TEMP: 71; 6HR MAX TEMP: 73;  
 
FLORALA* N/A 72 70 94 CALM 30.81R  
 

 
 
FLZ001>006-261300-  
WESTERN FLORIDA PANHANDLE  
 
CITY SKY/WX TMP DP RH WIND PRES REMARKS
 
PENSACOLA FAIR 77 75 93 CALM 30.05S  
6HR MIN TEMP: 76; 6HR MAX TEMP: 81; 6HR PCP: 1.25;  
 
NAS PENSACOLA MOCLDY 78 77 96 CALM 30.05R  
6HR MIN TEMP: 78; 6HR MAX TEMP: 82; 6HR PCP: 0.01;  
 
MILTON MOCLDY 74 74 100 CALM 30.06F  
6HR MIN TEMP: 74; 6HR MAX TEMP: 75; 6HR PCP: TRACE;  
 
WHTNG S FIELD MOCLDY 75 75 100 CALM 30.06F  
6HR MIN TEMP: 74; 6HR MAX TEMP: 76; 6HR PCP: 0.02;  
 
 
CITY SKY/WX TMP DP RH WIND PRES REMARKS
 
JAY* N/A N/A N/A N/A CALM N/A  
DUKE FIELD CLOUDY 73 73 100 CALM 30.07R  
CRESTVIEW LGT RAIN 73 71 93 E3 30.08S FOG  
6HR MIN TEMP: 71; 6HR MAX TEMP: 73;  
 
VALPARAISO MOCLDY 74 73 96 N5 30.06R  
6HR MIN TEMP: 74; 6HR MAX TEMP: 77;  
 
DESTIN FAIR 78 76 93 E5 30.06R  
6HR MIN TEMP: 78; 6HR MAX TEMP: 83;  
 

 
 
MSZ076-079-261300-  
INTERIOR SOUTHEAST MISSISSIPPI  
 
CITY SKY/WX TMP DP RH WIND PRES REMARKS
 
LEAKESVILLE* NOT AVBL  
AGRICOLA* N/A 72 72 100 CALM N/A  
 

 
 
MARINE OBSERVATIONS  
 
STATION/POSITION TIME TEMP WIND PRES WAVE
 
AIR SEA DIR/SP/G HT/PER  
(UTC) (F) (DEG/KT/KT) (MB) (FT/S)  
PETIT BOIS ISLND 1136 83 180/ 7/ 8 1018.1R  
GRAND BAY 1045 83 210/ 5 1018.0S  
KATRINA CUT 1130 83 190/ 6 1018.0R  
CEDAR POINT 1130 83 190/ 6 1016.6F  
E DAUPHIN ISLAND 1100 83 200/ 4/ 6 1017.3R  
MIDDLE BAY LIGHT 1130 83 170/ 8 1016.6S  
USCG MOBILE BAY 1136 78 85 CALM 1017.8R  
STATE DOCKS 1136 78 86 1017.6R  
MEAHER PARK 1130 78 CALM 1018.3S  
WEEKS BAY 1045 76 1017.0S  
FORT MORGAN 1136 83 190/ 7/ 8 1017.5R  
12 S ORANGE BCH 1150 84 180/ 4/ 6 1017.7R 2/ 4  
PENSACOLA BAY 1136 79 84 30/ 2/ 4 1017.8S  
64 S DAUPHIN ISL 1150 85 160/ 4/ 6 1017.9R 2/ 4  
 

 
 
SELECTED LOCATIONS ACROSS THE REGION  
 
CITY SKY/WX TMP DP RH WIND PRES REMARKS
 
NEW ORLEANS LGT RAIN 76 75 97 S3 30.05R  
GULFPORT CLOUDY 76 74 93 NW3 30.04R  
PASCAGOULA AP FAIR 75 73 93 CALM 30.04S  
PASCAGOULA* N/A 75 75 100 CALM 30.05R  
HATTIESBURG FAIR 74 72 93 CALM 30.05S  
LAUREL FAIR 73 73 100 CALM 30.06S FOG  
MERIDIAN CLOUDY 76 73 91 S5 30.04S  
JACKSON CLOUDY 75 74 96 S3 30.03S  
MONTGOMERY CLOUDY 74 72 93 CALM 30.08S  
TROY FAIR 71 70 96 CALM 30.09S  
ASHFORD* N/A N/A N/A N/A E2 30.08S  
DOTHAN FAIR 71 69 93 CALM 30.13R FOG  
PANAMA CITY FAIR 73 71 93 N3 30.07R  
 

 
 
 
 
CLICK HERE TO GO TO PREVIOUS BULLETINS.

The Nexlab AL Page
The Nexlab FL Page
The Nexlab MS Page Main Text Page